Location: ??? ???
(33.4974°N, 35.4618°E)
Time: 11:27:32
(UTC+00:00)

ADEOS Rocket - Pass Details

Date: 29 October 2020
Orbit: 859 x 1306 km, 98.7° (Epoch: 26 November)

Event Time Altitude Azimuth Distance (km) Brightness Sun altitude
Rises 14:59:20 0° 6° (N) 3,829 5.9 -3.0°
Reaches altitude 10° 15:01:48 10° 3° (N) 2,932 5.3 -3.5°
Maximum altitude 15:08:19 56° 287° (WNW) 1,372 4.2 -4.8°
Drops below altitude 10° 15:15:28 10° 212° (SSW) 3,204 6.4 -6.2°
Sets 15:18:16 0° 208° (SSW) 4,210 7.0 -6.8°
